Showing default

SENTINEL 3B, 43437

Orbit data source: Space-Track

SENTINEL 3B, 43437 is an ESA payload satellite in SSO that was launched on Wed, 25 Apr 2018 UTC via an ROKOT launch vehicle from the Plesetsk Missile And Space Complex (PKMTR). Payloads include a variety of satellites, spacecraft, and rockets equipped with specific instruments for various scientific and technological missions. These include communications satellites like Starlink; space stations such as the ISS; scientific satellites like the Hubble; Earth observation satellites from companies like Planet Labs, Umbra, and HawkEye 360; GPS; miniature CubeSats for education and research; and military/defense satellites.

Loading next visibility...
SENTINEL 3B details
Identifier
43437, 2018-039A
Orbit
SSO
Last TLE update12 hours ago
Origin
Flag of ESACOPERN/ESA (ESA)
ManufacturerThales Alenia
MissionOperational Civil Imaging
Bus & MotorSENTINEL-3A, Unknown motor
Mass1,250 kg wet, 1,150 kg dry
Launch date (UTC)
2018-04-25 (7 years ago)
Launch vehicle
ROKOT
Launch site
Plesetsk Missile And Space Complex (PKMTR)
Object type
Payload
Rocket body
Debris
Shape & HBRBox + 1 Pan, 6.9 m
Radar Cross Section12.454 m², Large (>1 m²)

Expand to show TLE details & history

TLE from 12 hours ago
0 SENTINEL 3B
1 43437U 18039A   24339.62322203  .00000425  00000-0  19355-3 0  9990
2 43437  98.6259  44.1006 0001475 102.2804 257.8542 14.26747200344334
Epoch: 2024-12-04T14:57Z
Definitive object data (Epoch: 2024-12-04T14:57:26.383Z)
Latitude0.00002°
Longitude105.82495°
Altitude805.774 km
Speed7.45 km/s
True Right ascension02h 56m 24s
True Declination0° 00' 00"
Sunlit
Object was in full shadow at TLE epoch
Visualization TLE readout
Latitude32.99086°
Longitude-68.04162°
Altitude806.161 km
Speed7.454 km/s
Apparent Right ascension14h 28m 04s
Apparent Declination0° 58' 08"
Sunlit
Object is in daylight
Visualization observer readout
Local Sidereal Time01:22:40
Azimuth334.968° NNW
Elevation-48.307°
Doppler factor1
Orbital elements
Apogee altitude800.829 km
Perigee altitude798.711 km
Semi-major axis7,177.907 km
Eccentricity0.0001475
Inclination98.6259°
RAAN44.1006°
Arg. of periapsis102.2804°
True anomaly257.83768°
Mean anomaly257.8542°
Eccentric anomaly257.84594°
Mean motion3.569 °/min
BSTAR0.00019355
Orbital period100.87 mins
Loading maneuver chart data...
Loading historical data...
Loading historical data...
Loading historical data...
Loading historical data...
Loading historical data...
Loading historical data...
Loading historical data...
Other satellites on launch #39 in the year 2018 (2018-04-25 UTC)

SENTINEL 3B Visibility forecast

Observer location: undefined°, undefined

Span
Click to sort rows by Start time (UTC) header in descending order
Start Az.
Max El. time (UTC)
Max El. Az.
Max El.
End time (UTC)
End Az.
10 mins2024-12-05 04:31:26.372Z168.241° S2024-12-05 04:36:26.372Z223.738° SW44.653°2024-12-05 04:41:26.372Z344.638° N
8 mins2024-12-05 16:48:26.372Z38.973° NE2024-12-05 16:51:26.372Z89.758° E32.04°2024-12-05 16:56:26.372Z166.071° S
6 mins2024-12-05 18:28:26.372Z336.538° NNW2024-12-05 18:31:26.372Z290.591° WNW23.226°2024-12-05 18:34:26.372Z248.132° W
|